Starlink 33848

operational
NORAD ID: 63705 Int'l Des: 2025-087 Owner: SPXS Country: US Constellation: starlink
LEOCIRCULAR

关于 Starlink 33848

正在加载描述...

实时位置

正在加载3D地球...

即将过境

高度历史

Altitude vs Time

uPlot chart will show altitude changes over time

两行轨道根数

1 63705U 25087J 26037.28528726 .00047454 00000-0 16037-2 0 9994
2 63705 53.1647 5.2711 0000825 204.6252 155.4710 15.30208951 44387
Epoch: Feb 6, 2026 • Age: 6 hours

当前状态

高度 477.7 km
速度 7.63 km/s
星下点 -7.19°S, 25.82°E
发射日期 Apr 28, 2025
运行时间 0.7 years
类型 internet

技术详情

分类 Payload
质量 575.00 kg
干质量 530.00 kg
总质量 575.00 kg
长度 0.30 m
直径 4.10 m
跨度 29.00 m
形状 Box + pan
制造商 SPXS
平台类型 Starlink V2MO
阶段状态 In Orbit
所有者/国家 SPXS/US

大型星座

Loading constellations...